Location: North Evanston
(42.0634°N, 87.6976°W)
Time: 20:44:32
(UTC+00:00)

Vanguard 3 - Pass Details

Date: 18 May 2026
Orbit: 507 x 3205 km, 33.4° (Epoch: 31 May)

Event Time Altitude Azimuth Distance (km) Brightness Sun altitude
Rises 18:47:36 0° 240° (WSW) 6,200 12.0 64.2°
Reaches altitude 10° 18:51:22 10° 236° (WSW) 5,458 11.9 63.8°
Maximum altitude 19:08:34 58° 163° (SSE) 3,538 11.7 61.8°
Drops below altitude 10° 19:26:43 10° 92° (E) 5,724 11.3 59.3°
Sets 19:30:45 0° 88° (E) 6,506 11.5 58.7°
